Home > Weather > Khan Yunis > Past weeks

Flag for Palestinian Territories Weather for the Past 2 Weeks in Khan Yunis, Gaza Strip, Palestinian Territories

Now
63 °F

Partly sunny.


Feels Like: 63 °F
Forecast: 49 / 63 °F
Wind: 6 mph from Northwest

Location: El Arish

Current Time: Feb 8, 2016 at 3:09:02 PM

Latest Report: Feb 8, 2016 at 2:00 PM


Visibility: N/A

Pressure: 30.21 "Hg

Humidity: 49%

Dew point: 43 °F

Location of Khan YunisLocation

Historic Weather in Khan Yunis — Graph

°F

Khan Yunis Temperature Yesterday

Maximum temperature yesterday: 61 °F (at 12:00 PM)
Minimum temperature yesterday: 48 °F (at 7:00 AM)
Average temperature yesterday: 53 °F

High & Low Weather Summary for the Past Weeks

 TemperatureHumidityPressure
High79 °F (Feb 4, 3:00 PM)100% (Jan 24, 8:00 PM)30.45 "Hg (Jan 24, 8:00 PM)
Low36 °F (Jan 28, 6:00 AM)21% (Feb 4, 3:00 PM)29.95 "Hg (Feb 5, 6:00 AM)
Average53 °F84%30.20 "Hg
* Reported Jan 24 1:00 PM — Feb 8 1:00 PM, Khan Yunis, Weather by CustomWeather, © 2016

Note: Actual official high and low records may vary slightly from our data, if they occured in-between our weather recording intervals... More about our weather records

Advertising

Khan Yunis Weather History for the Previous 24 Hours

 ConditionsComfort  
Time TempWeatherWind HumidityBarometerVisibility
1:00 PM
Mon, Feb 8
61 °FPartly sunny.6 mph52%30.21 "HgN/A
12:00 PM59 °FBroken clouds.5 mph59%30.24 "HgN/A
11:00 AM55 °FBroken clouds.5 mph77%30.24 "HgN/A
10:07 AM54 °FBroken clouds.2 mph82%30.24 "HgN/A
9:00 AM50 °FRain. Partly sunny.2 mph94%30.24 "Hg4 mi
8:00 AM50 °FBroken clouds.6 mph88%30.21 "HgN/A
7:00 AM50 °FScattered clouds.3 mph88%30.18 "HgN/A
6:00 AM50 °FClear.7 mph88%30.18 "Hg10 mi
5:00 AM50 °FClear.7 mph94%30.18 "Hg10 mi
4:00 AM50 °FClear.7 mph100%30.15 "Hg10 mi
3:00 AM50 °FClear.5 mph100%30.15 "Hg10 mi
2:00 AM48 °FClear.5 mph100%30.18 "Hg10 mi
12:00 AM52 °FClear.6 mph100%30.18 "Hg10 mi
11:00 PM
Sun, Feb 7
52 °FClear.7 mph100%30.18 "Hg10 mi
10:00 PM52 °FClear.8 mph100%30.15 "Hg10 mi
9:00 PM52 °FClear.10 mph88%30.15 "Hg10 mi
8:00 PM52 °FClear.7 mph88%30.15 "Hg10 mi
7:00 PM52 °FPassing clouds.7 mph88%30.12 "HgN/A
6:00 PM52 °FPassing clouds.12 mph72%30.09 "HgN/A
5:00 PM54 °FPartly sunny.12 mph58%30.09 "HgN/A
4:00 PM57 °FPartly sunny.14 mph55%30.07 "HgN/A
3:00 PM57 °FPartly sunny.17 mph51%30.07 "HgN/A
Weather by CustomWeather, © 2016

See weather overviewHow to use our weather pages